AirNav   Bose Proflight Series 2 Wireless Aviation Headset
 
 918 users online  

50G Howard Nixon Memorial Airport
Chesaning, Michigan, USA

GOING TO CHESANING?


FAA INFORMATION EFFECTIVE 07 NOVEMBER 2019

Location

FAA Identifier: 50G
Lat/Long: 43-10-51.6818N 084-07-56.8038W
43-10.861363N 084-07.946730W
43.1810227,-84.1324455
(estimated)
Elevation: 643 ft. / 196.0 m (surveyed)
Variation: 05W (1985)
From city: 1 mile W of CHESANING, MI
Time zone: UTC -5 (UTC -4 during Daylight Saving Time)
Zip code: 48616

Airport Operations

Airport use: Open to the public
Activation date: 09/1946
Control tower: no
ARTCC: CLEVELAND CENTER
FSS: LANSING FLIGHT SERVICE STATION
NOTAMs facility: LAN (NOTAM-D service available)
Attendance: IREG
Wind indicator: lighted
Segmented circle: yes
Lights: ACTVT LIRL RY 09/27 AND RY 18/36 - CTAF.

Airport Communications

CTAF: 122.9
WX AWOS-3 at RNP (11 nm S): 118.025 (989-729-2967)
WX AWOS-3 at HYX (19 nm NE): 118.325 (989-752-3408)

Nearby radio navigation aids

VOR radial/distance  VOR name  Freq  Var
MBSr190/21.2SAGINAW VOR/DME112.9003W
FNTr313/21.2FLINT VORTAC116.9006W
MOPr140/37.4MOUNT PLEASANT VOR/DME110.6005W

Airport Services

Parking: tiedowns

Runway Information

Runway 9/27

Dimensions: 2800 x 150 ft. / 853 x 46 m
Surface: turf, in good condition
Runway edge lights: low intensity
Runway edge markings: RY 18/36 & 09 /27 MARKED WITH 3 FT YELLOW CONES INCLUDING DSPLCD THLDS.
RUNWAY 9  RUNWAY 27
Latitude: 43-10.785167N43-10.800833N
Longitude: 084-08.374500W084-07.745000W
Elevation: 639.0 ft.638.0 ft.
Traffic pattern: leftleft
Runway heading: 093 magnetic, 088 true273 magnetic, 268 true
Displaced threshold: no800 ft.
Runway end identifier lights: yesyes
Obstructions: 15 ft. trees, 306 ft. from runway, 20:1 slope to clear25 ft. trees, 180 ft. from runway, 7:1 slope to clear
APCH RATIO 20:1 TO DSPLCD THLD OVER 55 FT TREES, 1104 FT DSTC, 75 FT L.

Runway 18/36

Dimensions: 2582 x 150 ft. / 787 x 46 m
Surface: turf, in good condition
Runway edge lights: low intensity
RUNWAY 18  RUNWAY 36
Latitude: 43-11.148000N43-10.723000N
Longitude: 084-07.824167W084-07.824167W
Elevation: 634.0 ft.637.0 ft.
Traffic pattern: leftleft
Runway heading: 185 magnetic, 180 true005 magnetic, 360 true
Displaced threshold: 400 ft.796 ft.
Runway end identifier lights: yesyes
Obstructions: 50 ft. trees, 408 ft. from runway, 80 ft. right of centerline, 8:1 slope to clear
APCH RATIO 14:1 TO DSPLCD THLD, OVER 57 FT TREES, 808 FT DSTC, 80 FT R.
46 ft. trees, 234 ft. from runway, 5:1 slope to clear
APCH RATIO 20:1 TO DSPLCD THLD, OVER 52 FT TREES 1053 FT DSTC, 0 B.

Airport Ownership and Management from official FAA records

Ownership: Publicly-owned
Owner: VILLAGE OF CHESANING
204 S 4TH ST
CHESANING, MI 48616
Phone 989-845-3800
TROY FELYMAN
Manager: CHRISTINE HARTGES
1100 W BROAD ST
CHESANING, MI 48616
Phone (989) 295-6992
989-413-0432

Airport Operational Statistics

Aircraft based on the field: 17
Single engine airplanes: 17
    
Aircraft operations: avg 65/week *
50% transient general aviation
50% local general aviation
* for 12-month period ending 31 December 2016

Additional Remarks

NO WINTER SNOW REMOVAL.
FOR CD CTC GREAT LAKES APCH AT 269-459-3345, WHEN APCH CLSD CTC CLEVELAND ARTCC AT 440-774-0490

Instrument Procedures

There are no published instrument procedures at 50G.

Some nearby airports with instrument procedures:

KRNP - Owosso Community Airport (11 nm S)
KHYX - Saginaw County H W Browne Airport (19 nm NE)
KMBS - MBS International Airport (21 nm N)
KFNT - Bishop International Airport (21 nm SE)
3CM - James Clements Municipal Airport (24 nm NE)
 
Loc | Ops | Rwys | IFR | FBO | Links
Com | Nav | Svcs | Stats | Notes
Area around 50G (Howard Nixon Memorial Airport)
 
Road maps at: MapQuest Bing Google
 
Aerial photo
WARNING: Photo may not be current or correct
Aerial photo of 50G (Howard Nixon Memorial Airport)
Photo by Ren Wall

Do you have a better or more recent aerial photo of Howard Nixon Memorial Airport that you would like to share? If so, please send us your photo.

 
Sectional chart

 
Airport distance calculator
Flying to Howard Nixon Memorial Airport? Find the distance to fly.

From to 50G

Sunrise and sunset
Times for 17-Nov-2019
 Local
(UTC-5)
 Zulu
(UTC)
Morning civil twilight07:0212:02
Sunrise07:3312:33
Sunset17:1022:10
Evening civil twilight17:4122:41

Current date and time
Zulu (UTC)  18-Nov-2019 03:41:57
Local (UTC-5)  17-Nov-2019 22:41:57
 
METAR
KRNP 
11nm S 
180315Z AUTO 00000KT 10SM OVC080 03/M03 A2988 RMK AO2 T00331030
KHYX 
19nm NE 
180316Z AUTO 15003KT 10SM OVC090 00/M03 A2989 RMK AO2
KFNT 
21nm SE 
180253Z 16003KT 10SM OVC055 02/M03 A2990 RMK AO2 SLP133 T00221033 57019
KMBS 
21nm N 
180253Z AUTO 12004KT 10SM OVC085 01/M03 A2990 RMK AO2 SLP132 T00111033 58018
TAF
KFNT 
21nm SE 
171737Z 1718/1818 14005KT P6SM OVC150 FM180400 16005KT P6SM SCT025 OVC040 FM181000 16005KT 4SM BR SCT025 OVC040 FM181600 18005KT 6SM BR BKN040 OVC080
KMBS 
21nm N 
171737Z 1718/1818 14007KT P6SM OVC120 FM180400 18005KT P6SM SCT025 OVC040 TEMPO 1804/1808 4SM -SN BR OVC025 FM181000 18005KT 4SM BR BKN025 OVC040 FM181600 22005KT 6SM BR OVC015
NOTAMs
Click for the latest NOTAMs
NOTAMs are issued by the DoD/FAA and will open in a separate window not controlled by AirNav.

 

 
 

Would you like to see your business listed on this page?

 If your business provides an interesting product or service to pilots, flight crews, aircraft, or users of the Howard Nixon Memorial Airport, you should consider listing it here.  To start the listing process, click on the button below
 
Add a business
 

Other Pages about Howard Nixon Memorial Airport

Page from the Michigan Airport Directory (PDF)
 
Update a link
 
Copyright © AirNav, LLC. All rights reserved. Privacy Policy  Contact